WXM80 ListenWXM80 Stop

You find our weather info also at:

UK Metoffice

WeatherCloud

Weather Underground

Northeastern Weather Network

AWEKAS

Citizen Weather Observer Program (CWOP)

HAMweather, WeatherForYou, PWS Weather


Weather Underground History page Text

Daily Summary for March 16, 2017 Units:  Both    English   Metric
« Previous Day
Next Day »
Daily Weekly Monthly Yearly Custom
  High: Low: Average:
Temperature: 38.9 °F /  3.8 °C 25.9 °F /  -3.4 °C 32.2 °F /  0.1 °C
Dew Point: 19.2 °F /  -7.1 °C 14.7 °F /  -9.6 °C 16.6 °F /  -8.6 °C
Humidity: 68 % 40 % 53 %
Wind Speed: 13.3 mph /  21.4 km/h - 7.7 mph /  12.4 km/h
Wind Gust: 25.3 mph /  40.7 km/h - -
Wind:- - West
Pressure: 30.08 in /  1018.5 hPa 29.79 in /  1008.7 hPa -
Precipitation: 0.00 in /  0 mm    
Historical Graphs
 
 
Tabular Data for March 16, 2017
Time Temperature Dew Point Pressure Wind Wind Speed Wind Gust Humidity Rainfall Rate (Hourly)
00:02 26.9 °F /  -2.8 °C 16.0 °F /  -8.9 °C 29.79 in /  1008.7 hPa WNW 13.3 mph /  21.4 km/h 19.6 mph /  31.5 km/h 63 % 0.00 in /  0 mm
00:07 26.9 °F /  -2.8 °C 16.0 °F /  -8.9 °C 29.80 in /  1009 hPa NW 7.7 mph /  12.4 km/h 19.6 mph /  31.5 km/h 63 % 0.00 in /  0 mm
00:12 26.9 °F /  -2.8 °C 15.6 °F /  -9.1 °C 29.80 in /  1009 hPa NW 8.9 mph /  14.3 km/h 18.4 mph /  29.6 km/h 62 % 0.00 in /  0 mm
00:17 26.9 °F /  -2.8 °C 15.6 °F /  -9.1 °C 29.80 in /  1009 hPa WNW 7.9 mph /  12.7 km/h 23.0 mph /  37 km/h 62 % 0.00 in /  0 mm
00:22 26.9 °F /  -2.8 °C 15.6 °F /  -9.1 °C 29.80 in /  1009 hPa West 9.8 mph /  15.8 km/h 21.0 mph /  33.8 km/h 62 % 0.00 in /  0 mm
00:27 27.0 °F /  -2.8 °C 15.7 °F /  -9.1 °C 29.80 in /  1009 hPa West 7.3 mph /  11.7 km/h 13.8 mph /  22.2 km/h 62 % 0.00 in /  0 mm
00:32 26.9 °F /  -2.8 °C 15.6 °F /  -9.1 °C 29.81 in /  1009.4 hPa WSW 7.7 mph /  12.4 km/h 20.7 mph /  33.3 km/h 62 % 0.00 in /  0 mm
00:37 26.9 °F /  -2.8 °C 15.2 °F /  -9.3 °C 29.81 in /  1009.4 hPa West 10.7 mph /  17.2 km/h 16.1 mph /  25.9 km/h 61 % 0.00 in /  0 mm
00:42 27.0 °F /  -2.8 °C 15.3 °F /  -9.3 °C 29.81 in /  1009.4 hPa West 9.4 mph /  15.1 km/h 18.4 mph /  29.6 km/h 61 % 0.00 in /  0 mm
00:47 27.1 °F /  -2.7 °C 15.4 °F /  -9.2 °C 29.81 in /  1009.4 hPa West 10.5 mph /  16.9 km/h 18.0 mph /  29 km/h 61 % 0.00 in /  0 mm
00:52 27.1 °F /  -2.7 °C 15.0 °F /  -9.4 °C 29.81 in /  1009.4 hPa SW 12.0 mph /  19.3 km/h 20.0 mph /  32.2 km/h 60 % 0.00 in /  0 mm
00:57 27.1 °F /  -2.7 °C 15.0 °F /  -9.4 °C 29.81 in /  1009.4 hPa West 5.5 mph /  8.9 km/h 12.7 mph /  20.4 km/h 60 % 0.00 in /  0 mm
01:02 27.0 °F /  -2.8 °C 14.9 °F /  -9.5 °C 29.81 in /  1009.4 hPa WNW 9.6 mph /  15.4 km/h 16.1 mph /  25.9 km/h 60 % 0.00 in /  0 mm
01:07 27.0 °F /  -2.8 °C 15.3 °F /  -9.3 °C 29.81 in /  1009.4 hPa SW 9.5 mph /  15.3 km/h 19.6 mph /  31.5 km/h 61 % 0.00 in /  0 mm
01:12 27.0 °F /  -2.8 °C 15.3 °F /  -9.3 °C 29.81 in /  1009.4 hPa WNW 10.9 mph /  17.5 km/h 20.7 mph /  33.3 km/h 61 % 0.00 in /  0 mm
01:17 27.0 °F /  -2.8 °C 15.3 °F /  -9.3 °C 29.81 in /  1009.4 hPa West 9.4 mph /  15.1 km/h 13.0 mph /  20.9 km/h 61 % 0.00 in /  0 mm
01:22 26.9 °F /  -2.8 °C 15.2 °F /  -9.3 °C 29.81 in /  1009.4 hPa WSW 7.8 mph /  12.6 km/h 10.4 mph /  16.7 km/h 61 % 0.00 in /  0 mm
01:28 26.9 °F /  -2.8 °C 15.2 °F /  -9.3 °C 29.82 in /  1009.7 hPa WSW 8.7 mph /  14 km/h 19.6 mph /  31.5 km/h 61 % 0.00 in /  0 mm
01:33 26.9 °F /  -2.8 °C 15.6 °F /  -9.1 °C 29.82 in /  1009.7 hPa WSW 5.3 mph /  8.5 km/h 13.8 mph /  22.2 km/h 62 % 0.00 in /  0 mm
01:38 26.8 °F /  -2.9 °C 15.9 °F /  -8.9 °C 29.82 in /  1009.7 hPa SSW 4.7 mph /  7.6 km/h 10.4 mph /  16.7 km/h 63 % 0.00 in /  0 mm
01:43 26.7 °F /  -2.9 °C 16.1 °F /  -8.8 °C 29.83 in /  1010 hPa West 7.2 mph /  11.6 km/h 9.2 mph /  14.8 km/h 64 % 0.00 in /  0 mm
01:48 26.7 °F /  -2.9 °C 16.1 °F /  -8.8 °C 29.82 in /  1009.7 hPa West 10.0 mph /  16.1 km/h 22.0 mph /  35.4 km/h 64 % 0.00 in /  0 mm
01:53 26.7 °F /  -2.9 °C 16.1 °F /  -8.8 °C 29.82 in /  1009.7 hPa West 10.0 mph /  16.1 km/h 25.0 mph /  40.2 km/h 64 % 0.00 in /  0 mm
01:58 26.7 °F /  -2.9 °C 15.8 °F /  -9 °C 29.82 in /  1009.7 hPa WNW 11.7 mph /  18.8 km/h 13.8 mph /  22.2 km/h 63 % 0.00 in /  0 mm
02:03 26.7 °F /  -2.9 °C 16.2 °F /  -8.8 °C 29.82 in /  1009.7 hPa West 12.0 mph /  19.3 km/h 20.0 mph /  32.2 km/h 64 % 0.00 in /  0 mm
02:08 26.8 °F /  -2.9 °C 16.2 °F /  -8.8 °C 29.82 in /  1009.7 hPa West 6.0 mph /  9.7 km/h 12.0 mph /  19.3 km/h 64 % 0.00 in /  0 mm
02:13 26.8 °F /  -2.9 °C 16.6 °F /  -8.6 °C 29.82 in /  1009.7 hPa West 8.0 mph /  12.9 km/h 15.0 mph /  24.1 km/h 65 % 0.00 in /  0 mm
02:18 26.8 °F /  -2.9 °C 17.3 °F /  -8.2 °C 29.82 in /  1009.7 hPa West 7.0 mph /  11.3 km/h 20.0 mph /  32.2 km/h 67 % 0.00 in /  0 mm
02:23 26.7 °F /  -2.9 °C 17.2 °F /  -8.2 °C 29.82 in /  1009.7 hPa WSW 7.0 mph /  11.3 km/h 17.0 mph /  27.4 km/h 67 % 0.00 in /  0 mm
02:28 26.7 °F /  -2.9 °C 17.6 °F /  -8 °C 29.83 in /  1010 hPa WSW 8.0 mph /  12.9 km/h 20.0 mph /  32.2 km/h 68 % 0.00 in /  0 mm
02:33 26.7 °F /  -2.9 °C 17.6 °F /  -8 °C 29.83 in /  1010 hPa West 6.0 mph /  9.7 km/h 18.0 mph /  29 km/h 68 % 0.00 in /  0 mm
02:38 26.7 °F /  -2.9 °C 17.2 °F /  -8.2 °C 29.83 in /  1010 hPa West 7.0 mph /  11.3 km/h 16.0 mph /  25.7 km/h 67 % 0.00 in /  0 mm
02:43 26.7 °F /  -2.9 °C 17.2 °F /  -8.2 °C 29.83 in /  1010 hPa West 8.0 mph /  12.9 km/h 18.0 mph /  29 km/h 67 % 0.00 in /  0 mm
02:48 26.7 °F /  -2.9 °C 16.9 °F /  -8.4 °C 29.83 in /  1010 hPa West 8.0 mph /  12.9 km/h 22.0 mph /  35.4 km/h 66 % 0.00 in /  0 mm
02:53 26.6 °F /  -3 °C 16.8 °F /  -8.4 °C 29.83 in /  1010 hPa West 9.0 mph /  14.5 km/h 20.0 mph /  32.2 km/h 66 % 0.00 in /  0 mm
02:58 26.6 °F /  -3 °C 16.8 °F /  -8.4 °C 29.83 in /  1010 hPa West 8.6 mph /  13.8 km/h 18.4 mph /  29.6 km/h 66 % 0.00 in /  0 mm
03:03 26.7 °F /  -2.9 °C 16.5 °F /  -8.6 °C 29.83 in /  1010 hPa West 9.6 mph /  15.4 km/h 17.3 mph /  27.8 km/h 65 % 0.00 in /  0 mm
03:08 26.7 °F /  -2.9 °C 16.5 °F /  -8.6 °C 29.83 in /  1010 hPa West 7.7 mph /  12.4 km/h 18.4 mph /  29.6 km/h 65 % 0.00 in /  0 mm
03:13 26.7 °F /  -2.9 °C 16.5 °F /  -8.6 °C 29.83 in /  1010 hPa West 5.1 mph /  8.2 km/h 16.1 mph /  25.9 km/h 65 % 0.00 in /  0 mm
03:18 26.7 °F /  -2.9 °C 16.1 °F /  -8.8 °C 29.83 in /  1010 hPa West 10.0 mph /  16.1 km/h 21.0 mph /  33.8 km/h 64 % 0.00 in /  0 mm
03:23 26.7 °F /  -2.9 °C 16.1 °F /  -8.8 °C 29.83 in /  1010 hPa West 7.0 mph /  11.3 km/h 15.0 mph /  24.1 km/h 64 % 0.00 in /  0 mm
03:28 26.7 °F /  -2.9 °C 15.8 °F /  -9 °C 29.83 in /  1010 hPa West 12.0 mph /  19.3 km/h 21.0 mph /  33.8 km/h 63 % 0.00 in /  0 mm
03:33 26.7 °F /  -2.9 °C 15.8 °F /  -9 °C 29.83 in /  1010 hPa WSW 9.0 mph /  14.5 km/h 17.0 mph /  27.4 km/h 63 % 0.00 in /  0 mm
03:38 26.7 °F /  -2.9 °C 15.8 °F /  -9 °C 29.83 in /  1010 hPa WSW 8.0 mph /  12.9 km/h 15.0 mph /  24.1 km/h 63 % 0.00 in /  0 mm
03:43 26.7 °F /  -2.9 °C 15.4 °F /  -9.2 °C 29.83 in /  1010 hPa West 8.0 mph /  12.9 km/h 25.0 mph /  40.2 km/h 62 % 0.00 in /  0 mm
03:48 26.7 °F /  -2.9 °C 15.8 °F /  -9 °C 29.83 in /  1010 hPa West 8.0 mph /  12.9 km/h 17.0 mph /  27.4 km/h 63 % 0.00 in /  0 mm
03:53 26.6 °F /  -3 °C 15.3 °F /  -9.3 °C 29.83 in /  1010 hPa West 12.0 mph /  19.3 km/h 20.0 mph /  32.2 km/h 62 % 0.00 in /  0 mm
03:58 26.6 °F /  -3 °C 15.3 °F /  -9.3 °C 29.83 in /  1010 hPa WSW 11.3 mph /  18.2 km/h 21.9 mph /  35.2 km/h 62 % 0.00 in /  0 mm
04:03 26.6 °F /  -3 °C 15.3 °F /  -9.3 °C 29.83 in /  1010 hPa West 12.2 mph /  19.6 km/h 18.4 mph /  29.6 km/h 62 % 0.00 in /  0 mm
04:08 26.6 °F /  -3 °C 15.7 °F /  -9.1 °C 29.83 in /  1010 hPa SW 9.5 mph /  15.3 km/h 21.0 mph /  33.8 km/h 63 % 0.00 in /  0 mm
04:13 26.6 °F /  -3 °C 15.3 °F /  -9.3 °C 29.83 in /  1010 hPa West 11.0 mph /  17.7 km/h 13.0 mph /  20.9 km/h 62 % 0.00 in /  0 mm
04:18 26.6 °F /  -3 °C 15.3 °F /  -9.3 °C 29.83 in /  1010 hPa SW 9.8 mph /  15.8 km/h 17.0 mph /  27.4 km/h 62 % 0.00 in /  0 mm
04:23 26.6 °F /  -3 °C 15.3 °F /  -9.3 °C 29.83 in /  1010 hPa West 2.2 mph /  3.5 km/h 11.5 mph /  18.5 km/h 62 % 0.00 in /  0 mm
04:28 26.6 °F /  -3 °C 15.7 °F /  -9.1 °C 29.83 in /  1010 hPa SW 7.4 mph /  11.9 km/h 19.0 mph /  30.6 km/h 63 % 0.00 in /  0 mm
04:33 26.6 °F /  -3 °C 15.3 °F /  -9.3 °C 29.84 in /  1010.4 hPa SW 10.6 mph /  17.1 km/h 17.0 mph /  27.4 km/h 62 % 0.00 in /  0 mm
04:38 26.6 °F /  -3 °C 15.3 °F /  -9.3 °C 29.83 in /  1010 hPa West 7.5 mph /  12.1 km/h 15.0 mph /  24.1 km/h 62 % 0.00 in /  0 mm
04:43 26.6 °F /  -3 °C 15.3 °F /  -9.3 °C 29.84 in /  1010.4 hPa WSW 8.6 mph /  13.8 km/h 13.0 mph /  20.9 km/h 62 % 0.00 in /  0 mm
04:48 26.5 °F /  -3.1 °C 14.9 °F /  -9.5 °C 29.83 in /  1010 hPa WSW 7.6 mph /  12.2 km/h 13.0 mph /  20.9 km/h 61 % 0.00 in /  0 mm
04:53 26.5 °F /  -3.1 °C 14.9 °F /  -9.5 °C 29.83 in /  1010 hPa West 5.5 mph /  8.9 km/h 13.0 mph /  20.9 km/h 61 % 0.00 in /  0 mm
04:58 26.5 °F /  -3.1 °C 15.2 °F /  -9.3 °C 29.83 in /  1010 hPa WSW 9.0 mph /  14.5 km/h 12.7 mph /  20.4 km/h 62 % 0.00 in /  0 mm
05:03 26.4 °F /  -3.1 °C 15.1 °F /  -9.4 °C 29.84 in /  1010.4 hPa SW 12.5 mph /  20.1 km/h 17.0 mph /  27.4 km/h 62 % 0.00 in /  0 mm
05:08 26.4 °F /  -3.1 °C 15.1 °F /  -9.4 °C 29.84 in /  1010.4 hPa West 8.4 mph /  13.5 km/h 13.8 mph /  22.2 km/h 62 % 0.00 in /  0 mm
05:13 26.4 °F /  -3.1 °C 15.5 °F /  -9.2 °C 29.85 in /  1010.7 hPa WNW 6.4 mph /  10.3 km/h 16.1 mph /  25.9 km/h 63 % 0.00 in /  0 mm
05:18 26.3 °F /  -3.2 °C 15.0 °F /  -9.4 °C 29.85 in /  1010.7 hPa SSW 7.7 mph /  12.4 km/h 16.1 mph /  25.9 km/h 62 % 0.00 in /  0 mm
05:23 26.3 °F /  -3.2 °C 15.4 °F /  -9.2 °C 29.85 in /  1010.7 hPa WNW 8.1 mph /  13 km/h 16.1 mph /  25.9 km/h 63 % 0.00 in /  0 mm
05:28 26.2 °F /  -3.2 °C 14.9 °F /  -9.5 °C 29.85 in /  1010.7 hPa West 9.7 mph /  15.6 km/h 16.1 mph /  25.9 km/h 62 % 0.00 in /  0 mm
05:33 26.1 °F /  -3.3 °C 14.8 °F /  -9.6 °C 29.85 in /  1010.7 hPa North 8.9 mph /  14.3 km/h 20.7 mph /  33.3 km/h 62 % 0.00 in /  0 mm
05:38 26.1 °F /  -3.3 °C 15.2 °F /  -9.3 °C 29.85 in /  1010.7 hPa West 10.0 mph /  16.1 km/h 17.3 mph /  27.8 km/h 63 % 0.00 in /  0 mm
05:43 26.1 °F /  -3.3 °C 14.8 °F /  -9.6 °C 29.85 in /  1010.7 hPa SW 10.8 mph /  17.4 km/h 19.6 mph /  31.5 km/h 62 % 0.00 in /  0 mm
05:48 26.1 °F /  -3.3 °C 15.2 °F /  -9.3 °C 29.85 in /  1010.7 hPa WSW 6.9 mph /  11.1 km/h 18.4 mph /  29.6 km/h 63 % 0.00 in /  0 mm
05:53 26.1 °F /  -3.3 °C 15.2 °F /  -9.3 °C 29.86 in /  1011.1 hPa West 8.6 mph /  13.8 km/h 11.5 mph /  18.5 km/h 63 % 0.00 in /  0 mm
05:58 26.0 °F /  -3.3 °C 14.8 °F /  -9.6 °C 29.85 in /  1010.7 hPa NW 8.6 mph /  13.8 km/h 18.4 mph /  29.6 km/h 62 % 0.00 in /  0 mm
06:03 26.1 °F /  -3.3 °C 14.8 °F /  -9.6 °C 29.86 in /  1011.1 hPa WSW 5.1 mph /  8.2 km/h 11.5 mph /  18.5 km/h 62 % 0.00 in /  0 mm
06:09 26.0 °F /  -3.3 °C 15.1 °F /  -9.4 °C 29.86 in /  1011.1 hPa West 8.6 mph /  13.8 km/h 18.4 mph /  29.6 km/h 63 % 0.00 in /  0 mm
06:14 26.0 °F /  -3.3 °C 15.1 °F /  -9.4 °C 29.86 in /  1011.1 hPa WNW 10.1 mph /  16.3 km/h 20.7 mph /  33.3 km/h 63 % 0.00 in /  0 mm
06:19 26.0 °F /  -3.3 °C 15.1 °F /  -9.4 °C 29.86 in /  1011.1 hPa SW 7.6 mph /  12.2 km/h 11.5 mph /  18.5 km/h 63 % 0.00 in /  0 mm
06:24 26.0 °F /  -3.3 °C 15.1 °F /  -9.4 °C 29.86 in /  1011.1 hPa SW 7.1 mph /  11.4 km/h 12.7 mph /  20.4 km/h 63 % 0.00 in /  0 mm
06:29 26.0 °F /  -3.3 °C 14.8 °F /  -9.6 °C 29.86 in /  1011.1 hPa SW 5.2 mph /  8.4 km/h 12.7 mph /  20.4 km/h 62 % 0.00 in /  0 mm
06:34 26.0 °F /  -3.3 °C 15.1 °F /  -9.4 °C 29.87 in /  1011.4 hPa WSW 8.9 mph /  14.3 km/h 13.8 mph /  22.2 km/h 63 % 0.00 in /  0 mm
06:39 26.0 °F /  -3.3 °C 14.8 °F /  -9.6 °C 29.87 in /  1011.4 hPa SSW 6.0 mph /  9.7 km/h 11.5 mph /  18.5 km/h 62 % 0.00 in /  0 mm
06:44 25.9 °F /  -3.4 °C 14.7 °F /  -9.6 °C 29.87 in /  1011.4 hPa West 8.1 mph /  13 km/h 13.8 mph /  22.2 km/h 62 % 0.00 in /  0 mm
06:49 25.9 °F /  -3.4 °C 15.0 °F /  -9.4 °C 29.88 in /  1011.7 hPa WNW 8.4 mph /  13.5 km/h 19.6 mph /  31.5 km/h 63 % 0.00 in /  0 mm
06:54 26.0 °F /  -3.3 °C 15.1 °F /  -9.4 °C 29.88 in /  1011.7 hPa West 10.6 mph /  17.1 km/h 17.3 mph /  27.8 km/h 63 % 0.00 in /  0 mm
06:59 26.0 °F /  -3.3 °C 14.8 °F /  -9.6 °C 29.88 in /  1011.7 hPa WNW 10.5 mph /  16.9 km/h 21.9 mph /  35.2 km/h 62 % 0.00 in /  0 mm
07:04 26.0 °F /  -3.3 °C 15.1 °F /  -9.4 °C 29.88 in /  1011.7 hPa WSW 9.8 mph /  15.8 km/h 16.0 mph /  25.7 km/h 63 % 0.00 in /  0 mm
07:09 26.0 °F /  -3.3 °C 14.8 °F /  -9.6 °C 29.88 in /  1011.7 hPa WSW 9.1 mph /  14.6 km/h 12.7 mph /  20.4 km/h 62 % 0.00 in /  0 mm
07:14 26.0 °F /  -3.3 °C 14.8 °F /  -9.6 °C 29.88 in /  1011.7 hPa WSW 9.2 mph /  14.8 km/h 12.0 mph /  19.3 km/h 62 % 0.00 in /  0 mm
07:19 26.0 °F /  -3.3 °C 14.8 °F /  -9.6 °C 29.88 in /  1011.7 hPa West 9.0 mph /  14.5 km/h 11.5 mph /  18.5 km/h 62 % 0.00 in /  0 mm
07:24 26.0 °F /  -3.3 °C 14.8 °F /  -9.6 °C 29.88 in /  1011.7 hPa WSW 12.2 mph /  19.6 km/h 19.6 mph /  31.5 km/h 62 % 0.00 in /  0 mm
07:29 26.0 °F /  -3.3 °C 14.8 °F /  -9.6 °C 29.88 in /  1011.7 hPa WSW 4.1 mph /  6.6 km/h 6.9 mph /  11.1 km/h 62 % 0.00 in /  0 mm
07:34 26.1 °F /  -3.3 °C 14.8 °F /  -9.6 °C 29.89 in /  1012.1 hPa West 7.8 mph /  12.6 km/h 15.0 mph /  24.1 km/h 62 % 0.00 in /  0 mm
07:39 26.2 °F /  -3.2 °C 15.3 °F /  -9.3 °C 29.89 in /  1012.1 hPa WSW 7.2 mph /  11.6 km/h 12.7 mph /  20.4 km/h 63 % 0.00 in /  0 mm
07:44 26.4 °F /  -3.1 °C 15.5 °F /  -9.2 °C 29.89 in /  1012.1 hPa WNW 4.7 mph /  7.6 km/h 13.8 mph /  22.2 km/h 63 % 0.00 in /  0 mm
07:49 26.6 °F /  -3 °C 15.7 °F /  -9.1 °C 29.89 in /  1012.1 hPa WSW 8.6 mph /  13.8 km/h 18.4 mph /  29.6 km/h 63 % 0.00 in /  0 mm
07:54 26.7 °F /  -2.9 °C 15.4 °F /  -9.2 °C 29.89 in /  1012.1 hPa WNW 6.1 mph /  9.8 km/h 16.1 mph /  25.9 km/h 62 % 0.00 in /  0 mm
07:59 26.8 °F /  -2.9 °C 15.5 °F /  -9.2 °C 29.89 in /  1012.1 hPa SW 7.3 mph /  11.7 km/h 11.5 mph /  18.5 km/h 62 % 0.00 in /  0 mm
08:04 26.9 °F /  -2.8 °C 15.6 °F /  -9.1 °C 29.89 in /  1012.1 hPa West 6.5 mph /  10.5 km/h 16.1 mph /  25.9 km/h 62 % 0.00 in /  0 mm
08:10 27.0 °F /  -2.8 °C 15.7 °F /  -9.1 °C 29.90 in /  1012.4 hPa WSW 5.3 mph /  8.5 km/h 13.8 mph /  22.2 km/h 62 % 0.00 in /  0 mm
08:14 27.1 °F /  -2.7 °C 15.4 °F /  -9.2 °C 29.90 in /  1012.4 hPa WSW 9.8 mph /  15.8 km/h 13.0 mph /  20.9 km/h 61 % 0.00 in /  0 mm
08:19 27.4 °F /  -2.6 °C 15.7 °F /  -9.1 °C 29.90 in /  1012.4 hPa WNW 7.1 mph /  11.4 km/h 12.7 mph /  20.4 km/h 61 % 0.00 in /  0 mm
08:24 27.6 °F /  -2.4 °C 15.9 °F /  -8.9 °C 29.90 in /  1012.4 hPa West 8.0 mph /  12.9 km/h 15.0 mph /  24.1 km/h 61 % 0.00 in /  0 mm
08:29 27.9 °F /  -2.3 °C 16.2 °F /  -8.8 °C 29.90 in /  1012.4 hPa SW 7.0 mph /  11.3 km/h 8.0 mph /  12.9 km/h 61 % 0.00 in /  0 mm
08:34 28.0 °F /  -2.2 °C 15.9 °F /  -8.9 °C 29.90 in /  1012.4 hPa WNW 8.7 mph /  14 km/h 12.7 mph /  20.4 km/h 60 % 0.00 in /  0 mm
08:39 28.1 °F /  -2.2 °C 16.0 °F /  -8.9 °C 29.90 in /  1012.4 hPa West 10.6 mph /  17.1 km/h 15.0 mph /  24.1 km/h 60 % 0.00 in /  0 mm
08:44 28.2 °F /  -2.1 °C 16.1 °F /  -8.8 °C 29.90 in /  1012.4 hPa West 8.4 mph /  13.5 km/h 15.0 mph /  24.1 km/h 60 % 0.00 in /  0 mm
08:49 28.5 °F /  -1.9 °C 16.4 °F /  -8.7 °C 29.90 in /  1012.4 hPa WSW 6.2 mph /  10 km/h 11.5 mph /  18.5 km/h 60 % 0.00 in /  0 mm
08:54 28.8 °F /  -1.8 °C 16.3 °F /  -8.7 °C 29.90 in /  1012.4 hPa WSW 8.3 mph /  13.4 km/h 16.1 mph /  25.9 km/h 59 % 0.00 in /  0 mm
08:59 29.0 °F /  -1.7 °C 16.8 °F /  -8.4 °C 29.90 in /  1012.4 hPa West 6.4 mph /  10.3 km/h 17.0 mph /  27.4 km/h 60 % 0.00 in /  0 mm
09:04 29.2 °F /  -1.6 °C 16.6 °F /  -8.6 °C 29.91 in /  1012.8 hPa WNW 10.1 mph /  16.3 km/h 17.3 mph /  27.8 km/h 59 % 0.00 in /  0 mm
09:09 29.2 °F /  -1.6 °C 16.6 °F /  -8.6 °C 29.90 in /  1012.4 hPa West 8.6 mph /  13.8 km/h 19.6 mph /  31.5 km/h 59 % 0.00 in /  0 mm
09:14 29.2 °F /  -1.6 °C 16.2 °F /  -8.8 °C 29.91 in /  1012.8 hPa WSW 6.7 mph /  10.8 km/h 15.0 mph /  24.1 km/h 58 % 0.00 in /  0 mm
09:19 29.2 °F /  -1.6 °C 16.6 °F /  -8.6 °C 29.91 in /  1012.8 hPa SW 7.8 mph /  12.6 km/h 15.0 mph /  24.1 km/h 59 % 0.00 in /  0 mm
09:24 29.3 °F /  -1.5 °C 16.3 °F /  -8.7 °C 29.91 in /  1012.8 hPa SW 8.2 mph /  13.2 km/h 13.8 mph /  22.2 km/h 58 % 0.00 in /  0 mm
09:29 29.5 °F /  -1.4 °C 16.5 °F /  -8.6 °C 29.91 in /  1012.8 hPa NW 9.0 mph /  14.5 km/h 17.3 mph /  27.8 km/h 58 % 0.00 in /  0 mm
09:34 29.6 °F /  -1.3 °C 16.2 °F /  -8.8 °C 29.91 in /  1012.8 hPa West 7.2 mph /  11.6 km/h 17.3 mph /  27.8 km/h 57 % 0.00 in /  0 mm
09:39 29.7 °F /  -1.3 °C 16.7 °F /  -8.5 °C 29.90 in /  1012.4 hPa NW 6.9 mph /  11.1 km/h 13.8 mph /  22.2 km/h 58 % 0.00 in /  0 mm
09:44 29.8 °F /  -1.2 °C 16.4 °F /  -8.7 °C 29.90 in /  1012.4 hPa WNW 12.9 mph /  20.8 km/h 21.9 mph /  35.2 km/h 57 % 0.00 in /  0 mm
09:49 29.9 °F /  -1.2 °C 16.9 °F /  -8.4 °C 29.91 in /  1012.8 hPa WSW 10.3 mph /  16.6 km/h 13.8 mph /  22.2 km/h 58 % 0.00 in /  0 mm
09:54 30.0 °F /  -1.1 °C 16.6 °F /  -8.6 °C 29.90 in /  1012.4 hPa West 9.3 mph /  15 km/h 17.3 mph /  27.8 km/h 57 % 0.00 in /  0 mm
09:59 30.1 °F /  -1.1 °C 16.7 °F /  -8.5 °C 29.91 in /  1012.8 hPa WNW 7.0 mph /  11.3 km/h 8.1 mph /  13 km/h 57 % 0.00 in /  0 mm
10:04 30.4 °F /  -0.9 °C 17.0 °F /  -8.3 °C 29.91 in /  1012.8 hPa WNW 7.7 mph /  12.4 km/h 11.5 mph /  18.5 km/h 57 % 0.00 in /  0 mm
10:09 30.7 °F /  -0.7 °C 16.8 °F /  -8.4 °C 29.90 in /  1012.4 hPa NW 6.4 mph /  10.3 km/h 12.7 mph /  20.4 km/h 56 % 0.00 in /  0 mm
10:14 30.8 °F /  -0.7 °C 16.5 °F /  -8.6 °C 29.90 in /  1012.4 hPa WSW 8.6 mph /  13.8 km/h 15.0 mph /  24.1 km/h 55 % 0.00 in /  0 mm
10:19 30.9 °F /  -0.6 °C 16.6 °F /  -8.6 °C 29.90 in /  1012.4 hPa WNW 5.8 mph /  9.3 km/h 12.7 mph /  20.4 km/h 55 % 0.00 in /  0 mm
10:24 31.1 °F /  -0.5 °C 17.2 °F /  -8.2 °C 29.91 in /  1012.8 hPa WNW 5.8 mph /  9.3 km/h 12.7 mph /  20.4 km/h 56 % 0.00 in /  0 mm
10:30 31.6 °F /  -0.2 °C 17.3 °F /  -8.2 °C 29.90 in /  1012.4 hPa NNW 6.1 mph /  9.8 km/h 12.7 mph /  20.4 km/h 55 % 0.00 in /  0 mm
10:35 31.9 °F /  -0.1 °C 16.7 °F /  -8.5 °C 29.91 in /  1012.8 hPa West 10.9 mph /  17.5 km/h 19.6 mph /  31.5 km/h 53 % 0.00 in /  0 mm
10:40 32.1 °F /  0.1 °C 16.9 °F /  -8.4 °C 29.90 in /  1012.4 hPa NW 7.6 mph /  12.2 km/h 17.3 mph /  27.8 km/h 53 % 0.00 in /  0 mm
10:45 32.4 °F /  0.2 °C 17.2 °F /  -8.2 °C 29.90 in /  1012.4 hPa WNW 7.9 mph /  12.7 km/h 15.0 mph /  24.1 km/h 53 % 0.00 in /  0 mm
10:50 32.4 °F /  0.2 °C 17.2 °F /  -8.2 °C 29.90 in /  1012.4 hPa WNW 7.4 mph /  11.9 km/h 16.1 mph /  25.9 km/h 53 % 0.00 in /  0 mm
10:51 32.4 °F /  0.2 °C 17.2 °F /  -8.2 °C 29.90 in /  1012.4 hPa WSW 8.1 mph /  13 km/h 15.0 mph /  24.1 km/h 53 % 0.00 in /  0 mm
10:56 32.6 °F /  0.3 °C 16.9 °F /  -8.4 °C 29.90 in /  1012.4 hPa NW 9.7 mph /  15.6 km/h 17.0 mph /  27.4 km/h 52 % 0.00 in /  0 mm
11:01 32.6 °F /  0.3 °C 16.9 °F /  -8.4 °C 29.91 in /  1012.8 hPa NW 7.4 mph /  11.9 km/h 11.5 mph /  18.5 km/h 52 % 0.00 in /  0 mm
11:06 32.8 °F /  0.4 °C 17.1 °F /  -8.3 °C 29.91 in /  1012.8 hPa NNW 7.6 mph /  12.2 km/h 12.7 mph /  20.4 km/h 52 % 0.00 in /  0 mm
11:11 33.0 °F /  0.6 °C 17.3 °F /  -8.2 °C 29.91 in /  1012.8 hPa WNW 7.0 mph /  11.3 km/h 15.0 mph /  24.1 km/h 52 % 0.00 in /  0 mm
11:16 33.2 °F /  0.7 °C 17.0 °F /  -8.3 °C 29.91 in /  1012.8 hPa WNW 6.9 mph /  11.1 km/h 16.1 mph /  25.9 km/h 51 % 0.00 in /  0 mm
11:21 33.3 °F /  0.7 °C 16.6 °F /  -8.6 °C 29.91 in /  1012.8 hPa NW 8.2 mph /  13.2 km/h 16.0 mph /  25.7 km/h 50 % 0.00 in /  0 mm
11:26 33.6 °F /  0.9 °C 17.8 °F /  -7.9 °C 29.91 in /  1012.8 hPa WNW 6.6 mph /  10.6 km/h 12.7 mph /  20.4 km/h 52 % 0.00 in /  0 mm
11:31 34.0 °F /  1.1 °C 17.7 °F /  -7.9 °C 29.91 in /  1012.8 hPa West 6.1 mph /  9.8 km/h 13.8 mph /  22.2 km/h 51 % 0.00 in /  0 mm
11:36 34.5 °F /  1.4 °C 17.3 °F /  -8.2 °C 29.91 in /  1012.8 hPa WNW 7.5 mph /  12.1 km/h 11.5 mph /  18.5 km/h 49 % 0.00 in /  0 mm
11:41 34.6 °F /  1.4 °C 16.4 °F /  -8.7 °C 29.91 in /  1012.8 hPa WSW 9.7 mph /  15.6 km/h 12.0 mph /  19.3 km/h 47 % 0.00 in /  0 mm
11:46 34.8 °F /  1.6 °C 17.6 °F /  -8 °C 29.91 in /  1012.8 hPa West 4.9 mph /  7.9 km/h 9.2 mph /  14.8 km/h 49 % 0.00 in /  0 mm
11:51 35.0 °F /  1.7 °C 17.7 °F /  -7.9 °C 29.91 in /  1012.8 hPa WNW 4.6 mph /  7.4 km/h 13.8 mph /  22.2 km/h 49 % 0.00 in /  0 mm
11:56 35.4 °F /  1.9 °C 17.6 °F /  -8 °C 29.90 in /  1012.4 hPa WNW 6.6 mph /  10.6 km/h 11.5 mph /  18.5 km/h 48 % 0.00 in /  0 mm
12:02 35.5 °F /  1.9 °C 17.2 °F /  -8.2 °C 29.91 in /  1012.8 hPa West 6.7 mph /  10.8 km/h 13.8 mph /  22.2 km/h 47 % 0.00 in /  0 mm
12:07 35.6 °F /  2 °C 17.3 °F /  -8.2 °C 29.91 in /  1012.8 hPa West 8.1 mph /  13 km/h 12.7 mph /  20.4 km/h 47 % 0.00 in /  0 mm
12:12 35.7 °F /  2.1 °C 16.9 °F /  -8.4 °C 29.91 in /  1012.8 hPa NW 9.6 mph /  15.4 km/h 10.4 mph /  16.7 km/h 46 % 0.00 in /  0 mm
12:17 35.7 °F /  2.1 °C 16.4 °F /  -8.7 °C 29.91 in /  1012.8 hPa West 8.9 mph /  14.3 km/h 15.0 mph /  24.1 km/h 45 % 0.00 in /  0 mm
12:22 36.0 °F /  2.2 °C 17.2 °F /  -8.2 °C 29.91 in /  1012.8 hPa WNW 4.7 mph /  7.6 km/h 11.5 mph /  18.5 km/h 46 % 0.00 in /  0 mm
12:27 36.0 °F /  2.2 °C 16.7 °F /  -8.5 °C 29.91 in /  1012.8 hPa WSW 6.9 mph /  11.1 km/h 12.7 mph /  20.4 km/h 45 % 0.00 in /  0 mm
12:32 36.2 °F /  2.3 °C 16.9 °F /  -8.4 °C 29.91 in /  1012.8 hPa WNW 8.5 mph /  13.7 km/h 11.5 mph /  18.5 km/h 45 % 0.00 in /  0 mm
12:37 36.3 °F /  2.4 °C 17.5 °F /  -8.1 °C 29.91 in /  1012.8 hPa WNW 7.0 mph /  11.3 km/h 12.7 mph /  20.4 km/h 46 % 0.00 in /  0 mm
12:42 36.5 °F /  2.5 °C 16.6 °F /  -8.6 °C 29.91 in /  1012.8 hPa West 7.3 mph /  11.7 km/h 15.0 mph /  24.1 km/h 44 % 0.00 in /  0 mm
12:47 36.7 °F /  2.6 °C 17.8 °F /  -7.9 °C 29.91 in /  1012.8 hPa WNW 9.1 mph /  14.6 km/h 16.1 mph /  25.9 km/h 46 % 0.00 in /  0 mm
12:52 36.7 °F /  2.6 °C 17.3 °F /  -8.2 °C 29.91 in /  1012.8 hPa WNW 5.8 mph /  9.3 km/h 12.7 mph /  20.4 km/h 45 % 0.00 in /  0 mm
12:57 36.9 °F /  2.7 °C 16.5 °F /  -8.6 °C 29.91 in /  1012.8 hPa WSW 6.0 mph /  9.7 km/h 12.7 mph /  20.4 km/h 43 % 0.00 in /  0 mm
13:02 36.9 °F /  2.7 °C 16.5 °F /  -8.6 °C 29.91 in /  1012.8 hPa WNW 7.0 mph /  11.3 km/h 12.7 mph /  20.4 km/h 43 % 0.00 in /  0 mm
13:07 37.1 °F /  2.8 °C 16.6 °F /  -8.6 °C 29.91 in /  1012.8 hPa West 7.6 mph /  12.2 km/h 11.5 mph /  18.5 km/h 43 % 0.00 in /  0 mm
13:12 37.0 °F /  2.8 °C 16.5 °F /  -8.6 °C 29.91 in /  1012.8 hPa NW 4.7 mph /  7.6 km/h 11.5 mph /  18.5 km/h 43 % 0.00 in /  0 mm
13:17 37.4 °F /  3 °C 16.9 °F /  -8.4 °C 29.91 in /  1012.8 hPa WNW 7.0 mph /  11.3 km/h 9.2 mph /  14.8 km/h 43 % 0.00 in /  0 mm
13:18 37.4 °F /  3 °C 16.9 °F /  -8.4 °C 29.90 in /  1012.4 hPa West 7.4 mph /  11.9 km/h 11.5 mph /  18.5 km/h 43 % 0.00 in /  0 mm
13:23 37.6 °F /  3.1 °C 16.0 °F /  -8.9 °C 29.90 in /  1012.4 hPa WNW 8.5 mph /  13.7 km/h 15.0 mph /  24.1 km/h 41 % 0.00 in /  0 mm
13:28 37.5 °F /  3.1 °C 17.0 °F /  -8.3 °C 29.90 in /  1012.4 hPa NW 8.1 mph /  13 km/h 12.7 mph /  20.4 km/h 43 % 0.00 in /  0 mm
13:33 37.5 °F /  3.1 °C 15.9 °F /  -8.9 °C 29.90 in /  1012.4 hPa West 5.2 mph /  8.4 km/h 9.2 mph /  14.8 km/h 41 % 0.00 in /  0 mm
13:38 37.4 °F /  3 °C 15.8 °F /  -9 °C 29.90 in /  1012.4 hPa WSW 8.6 mph /  13.8 km/h 12.7 mph /  20.4 km/h 41 % 0.00 in /  0 mm
13:43 37.2 °F /  2.9 °C 15.6 °F /  -9.1 °C 29.90 in /  1012.4 hPa WSW 12.4 mph /  20 km/h 20.7 mph /  33.3 km/h 41 % 0.00 in /  0 mm
13:48 37.0 °F /  2.8 °C 15.5 °F /  -9.2 °C 29.90 in /  1012.4 hPa West 7.3 mph /  11.7 km/h 19.0 mph /  30.6 km/h 41 % 0.00 in /  0 mm
13:53 37.0 °F /  2.8 °C 16.0 °F /  -8.9 °C 29.89 in /  1012.1 hPa NW 7.6 mph /  12.2 km/h 15.0 mph /  24.1 km/h 42 % 0.00 in /  0 mm
13:58 37.2 °F /  2.9 °C 15.1 °F /  -9.4 °C 29.89 in /  1012.1 hPa SW 8.7 mph /  14 km/h 19.6 mph /  31.5 km/h 40 % 0.00 in /  0 mm
14:03 37.4 °F /  3 °C 16.9 °F /  -8.4 °C 29.89 in /  1012.1 hPa WNW 6.8 mph /  10.9 km/h 12.7 mph /  20.4 km/h 43 % 0.00 in /  0 mm
14:08 37.5 °F /  3.1 °C 16.5 °F /  -8.6 °C 29.89 in /  1012.1 hPa West 8.5 mph /  13.7 km/h 13.0 mph /  20.9 km/h 42 % 0.00 in /  0 mm
14:13 37.6 °F /  3.1 °C 16.5 °F /  -8.6 °C 29.89 in /  1012.1 hPa WNW 5.5 mph /  8.9 km/h 10.0 mph /  16.1 km/h 42 % 0.00 in /  0 mm
14:18 37.7 °F /  3.2 °C 16.1 °F /  -8.8 °C 29.89 in /  1012.1 hPa NW 6.7 mph /  10.8 km/h 12.7 mph /  20.4 km/h 41 % 0.00 in /  0 mm
14:23 37.8 °F /  3.2 °C 16.2 °F /  -8.8 °C 29.89 in /  1012.1 hPa WNW 6.8 mph /  10.9 km/h 12.7 mph /  20.4 km/h 41 % 0.00 in /  0 mm
14:28 37.7 °F /  3.2 °C 16.6 °F /  -8.6 °C 29.88 in /  1011.7 hPa WSW 5.9 mph /  9.5 km/h 10.4 mph /  16.7 km/h 42 % 0.00 in /  0 mm
14:33 37.7 °F /  3.2 °C 16.6 °F /  -8.6 °C 29.88 in /  1011.7 hPa SW 10.1 mph /  16.3 km/h 13.8 mph /  22.2 km/h 42 % 0.00 in /  0 mm
14:38 37.9 °F /  3.3 °C 17.4 °F /  -8.1 °C 29.89 in /  1012.1 hPa West 6.0 mph /  9.7 km/h 13.8 mph /  22.2 km/h 43 % 0.00 in /  0 mm
14:43 38.2 °F /  3.4 °C 17.1 °F /  -8.3 °C 29.88 in /  1011.7 hPa West 5.5 mph /  8.9 km/h 13.8 mph /  22.2 km/h 42 % 0.00 in /  0 mm
14:48 38.4 °F /  3.6 °C 17.3 °F /  -8.2 °C 29.89 in /  1012.1 hPa NW 8.2 mph /  13.2 km/h 13.8 mph /  22.2 km/h 42 % 0.00 in /  0 mm
14:54 38.4 °F /  3.6 °C 16.7 °F /  -8.5 °C 29.89 in /  1012.1 hPa West 8.6 mph /  13.8 km/h 17.3 mph /  27.8 km/h 41 % 0.00 in /  0 mm
14:59 38.4 °F /  3.6 °C 17.8 °F /  -7.9 °C 29.88 in /  1011.7 hPa West 6.9 mph /  11.1 km/h 18.4 mph /  29.6 km/h 43 % 0.00 in /  0 mm
15:04 38.5 °F /  3.6 °C 17.9 °F /  -7.8 °C 29.89 in /  1012.1 hPa West 6.9 mph /  11.1 km/h 12.7 mph /  20.4 km/h 43 % 0.00 in /  0 mm
15:09 38.6 °F /  3.7 °C 18.0 °F /  -7.8 °C 29.89 in /  1012.1 hPa WSW 3.3 mph /  5.3 km/h 11.5 mph /  18.5 km/h 43 % 0.00 in /  0 mm
15:14 38.7 °F /  3.7 °C 17.5 °F /  -8.1 °C 29.89 in /  1012.1 hPa WNW 7.1 mph /  11.4 km/h 16.1 mph /  25.9 km/h 42 % 0.00 in /  0 mm
15:19 38.6 °F /  3.7 °C 17.5 °F /  -8.1 °C 29.89 in /  1012.1 hPa WNW 5.4 mph /  8.7 km/h 12.7 mph /  20.4 km/h 42 % 0.00 in /  0 mm
15:24 38.6 °F /  3.7 °C 16.9 °F /  -8.4 °C 29.88 in /  1011.7 hPa West 7.3 mph /  11.7 km/h 12.7 mph /  20.4 km/h 41 % 0.00 in /  0 mm
15:28 38.5 °F /  3.6 °C 16.8 °F /  -8.4 °C 29.88 in /  1011.7 hPa WNW 9.7 mph /  15.6 km/h 18.4 mph /  29.6 km/h 41 % 0.00 in /  0 mm
15:33 38.5 °F /  3.6 °C 17.4 °F /  -8.1 °C 29.89 in /  1012.1 hPa WNW 5.5 mph /  8.9 km/h 16.1 mph /  25.9 km/h 42 % 0.00 in /  0 mm
15:38 38.6 °F /  3.7 °C 17.5 °F /  -8.1 °C 29.88 in /  1011.7 hPa WNW 6.0 mph /  9.7 km/h 14.0 mph /  22.5 km/h 42 % 0.00 in /  0 mm
15:43 38.6 °F /  3.7 °C 17.5 °F /  -8.1 °C 29.88 in /  1011.7 hPa West 7.0 mph /  11.3 km/h 16.0 mph /  25.7 km/h 42 % 0.00 in /  0 mm
15:48 38.6 °F /  3.7 °C 17.5 °F /  -8.1 °C 29.88 in /  1011.7 hPa West 8.0 mph /  12.9 km/h 13.0 mph /  20.9 km/h 42 % 0.00 in /  0 mm
15:53 38.7 °F /  3.7 °C 17.5 °F /  -8.1 °C 29.88 in /  1011.7 hPa West 8.0 mph /  12.9 km/h 14.0 mph /  22.5 km/h 42 % 0.00 in /  0 mm
15:58 38.8 °F /  3.8 °C 18.2 °F /  -7.7 °C 29.88 in /  1011.7 hPa West 8.2 mph /  13.2 km/h 13.0 mph /  20.9 km/h 43 % 0.00 in /  0 mm
16:03 38.8 °F /  3.8 °C 17.1 °F /  -8.3 °C 29.88 in /  1011.7 hPa WNW 8.0 mph /  12.9 km/h 14.0 mph /  22.5 km/h 41 % 0.00 in /  0 mm
16:08 38.8 °F /  3.8 °C 17.1 °F /  -8.3 °C 29.87 in /  1011.4 hPa West 6.0 mph /  9.7 km/h 14.0 mph /  22.5 km/h 41 % 0.00 in /  0 mm
16:13 38.9 °F /  3.8 °C 17.2 °F /  -8.2 °C 29.88 in /  1011.7 hPa WNW 9.0 mph /  14.5 km/h 16.0 mph /  25.7 km/h 41 % 0.00 in /  0 mm
16:18 38.8 °F /  3.8 °C 17.6 °F /  -8 °C 29.88 in /  1011.7 hPa WNW 7.0 mph /  11.3 km/h 20.0 mph /  32.2 km/h 42 % 0.00 in /  0 mm
16:23 38.7 °F /  3.7 °C 17.0 °F /  -8.3 °C 29.87 in /  1011.4 hPa West 9.0 mph /  14.5 km/h 20.0 mph /  32.2 km/h 41 % 0.00 in /  0 mm
16:28 38.6 °F /  3.7 °C 17.5 °F /  -8.1 °C 29.88 in /  1011.7 hPa WNW 6.0 mph /  9.7 km/h 16.0 mph /  25.7 km/h 42 % 0.00 in /  0 mm
16:33 38.6 °F /  3.7 °C 17.5 °F /  -8.1 °C 29.87 in /  1011.4 hPa WNW 8.0 mph /  12.9 km/h 15.0 mph /  24.1 km/h 42 % 0.00 in /  0 mm
16:38 38.6 °F /  3.7 °C 16.9 °F /  -8.4 °C 29.88 in /  1011.7 hPa WNW 6.0 mph /  9.7 km/h 13.0 mph /  20.9 km/h 41 % 0.00 in /  0 mm
16:43 38.5 °F /  3.6 °C 16.8 °F /  -8.4 °C 29.88 in /  1011.7 hPa WNW 5.0 mph /  8 km/h 13.0 mph /  20.9 km/h 41 % 0.00 in /  0 mm
16:48 38.5 °F /  3.6 °C 16.2 °F /  -8.8 °C 29.88 in /  1011.7 hPa WNW 10.0 mph /  16.1 km/h 18.0 mph /  29 km/h 40 % 0.00 in /  0 mm
16:53 38.3 °F /  3.5 °C 16.6 °F /  -8.6 °C 29.88 in /  1011.7 hPa WNW 6.0 mph /  9.7 km/h 20.0 mph /  32.2 km/h 41 % 0.00 in /  0 mm
16:58 38.2 °F /  3.4 °C 17.6 °F /  -8 °C 29.88 in /  1011.7 hPa NW 9.0 mph /  14.5 km/h 15.0 mph /  24.1 km/h 43 % 0.00 in /  0 mm
17:03 38.2 °F /  3.4 °C 17.1 °F /  -8.3 °C 29.88 in /  1011.7 hPa NW 11.4 mph /  18.3 km/h 16.1 mph /  25.9 km/h 42 % 0.00 in /  0 mm
17:08 38.1 °F /  3.4 °C 17.0 °F /  -8.3 °C 29.89 in /  1012.1 hPa WNW 6.3 mph /  10.1 km/h 12.7 mph /  20.4 km/h 42 % 0.00 in /  0 mm
17:13 38.2 °F /  3.4 °C 17.1 °F /  -8.3 °C 29.89 in /  1012.1 hPa WNW 9.5 mph /  15.3 km/h 18.0 mph /  29 km/h 42 % 0.00 in /  0 mm
17:18 38.2 °F /  3.4 °C 17.1 °F /  -8.3 °C 29.89 in /  1012.1 hPa NW 8.2 mph /  13.2 km/h 13.8 mph /  22.2 km/h 42 % 0.00 in /  0 mm
17:23 38.1 °F /  3.4 °C 16.4 °F /  -8.7 °C 29.89 in /  1012.1 hPa West 9.7 mph /  15.6 km/h 17.3 mph /  27.8 km/h 41 % 0.00 in /  0 mm
17:28 38.2 °F /  3.4 °C 17.1 °F /  -8.3 °C 29.89 in /  1012.1 hPa West 9.0 mph /  14.5 km/h 16.1 mph /  25.9 km/h 42 % 0.00 in /  0 mm
17:33 38.2 °F /  3.4 °C 17.1 °F /  -8.3 °C 29.89 in /  1012.1 hPa WNW 4.6 mph /  7.4 km/h 15.0 mph /  24.1 km/h 42 % 0.00 in /  0 mm
17:38 38.2 °F /  3.4 °C 17.1 °F /  -8.3 °C 29.89 in /  1012.1 hPa West 6.9 mph /  11.1 km/h 8.1 mph /  13 km/h 42 % 0.00 in /  0 mm
17:43 38.2 °F /  3.4 °C 16.5 °F /  -8.6 °C 29.89 in /  1012.1 hPa WNW 4.9 mph /  7.9 km/h 12.7 mph /  20.4 km/h 41 % 0.00 in /  0 mm
17:48 38.2 °F /  3.4 °C 17.1 °F /  -8.3 °C 29.89 in /  1012.1 hPa WNW 7.2 mph /  11.6 km/h 13.8 mph /  22.2 km/h 42 % 0.00 in /  0 mm
17:54 38.1 °F /  3.4 °C 17.0 °F /  -8.3 °C 29.89 in /  1012.1 hPa NW 8.3 mph /  13.4 km/h 15.0 mph /  24.1 km/h 42 % 0.00 in /  0 mm
17:59 38.0 °F /  3.3 °C 17.5 °F /  -8.1 °C 29.89 in /  1012.1 hPa WNW 7.9 mph /  12.7 km/h 16.1 mph /  25.9 km/h 43 % 0.00 in /  0 mm
18:04 37.9 °F /  3.3 °C 17.9 °F /  -7.8 °C 29.90 in /  1012.4 hPa NNW 7.0 mph /  11.3 km/h 12.7 mph /  20.4 km/h 44 % 0.00 in /  0 mm
18:09 37.9 °F /  3.3 °C 16.8 °F /  -8.4 °C 29.90 in /  1012.4 hPa WNW 5.3 mph /  8.5 km/h 9.2 mph /  14.8 km/h 42 % 0.00 in /  0 mm
18:14 37.8 °F /  3.2 °C 17.8 °F /  -7.9 °C 29.90 in /  1012.4 hPa WSW 7.0 mph /  11.3 km/h 11.5 mph /  18.5 km/h 44 % 0.00 in /  0 mm
18:19 37.7 °F /  3.2 °C 17.7 °F /  -7.9 °C 29.91 in /  1012.8 hPa NW 5.2 mph /  8.4 km/h 11.0 mph /  17.7 km/h 44 % 0.00 in /  0 mm
18:24 37.6 °F /  3.1 °C 17.6 °F /  -8 °C 29.91 in /  1012.8 hPa WNW 9.5 mph /  15.3 km/h 15.0 mph /  24.1 km/h 44 % 0.00 in /  0 mm
18:29 37.5 °F /  3.1 °C 17.5 °F /  -8.1 °C 29.91 in /  1012.8 hPa WNW 4.1 mph /  6.6 km/h 10.4 mph /  16.7 km/h 44 % 0.00 in /  0 mm
18:34 37.5 °F /  3.1 °C 18.1 °F /  -7.7 °C 29.91 in /  1012.8 hPa West 5.6 mph /  9 km/h 9.2 mph /  14.8 km/h 45 % 0.00 in /  0 mm
18:39 37.4 °F /  3 °C 18.0 °F /  -7.8 °C 29.92 in /  1013.1 hPa West 7.2 mph /  11.6 km/h 11.5 mph /  18.5 km/h 45 % 0.00 in /  0 mm
18:44 37.3 °F /  2.9 °C 17.9 °F /  -7.8 °C 29.92 in /  1013.1 hPa NW 3.7 mph /  6 km/h 12.7 mph /  20.4 km/h 45 % 0.00 in /  0 mm
18:49 37.2 °F /  2.9 °C 18.3 °F /  -7.6 °C 29.92 in /  1013.1 hPa NNW 5.8 mph /  9.3 km/h 11.5 mph /  18.5 km/h 46 % 0.00 in /  0 mm
18:54 37.1 °F /  2.8 °C 18.2 °F /  -7.7 °C 29.92 in /  1013.1 hPa WNW 8.9 mph /  14.3 km/h 12.7 mph /  20.4 km/h 46 % 0.00 in /  0 mm
18:59 37.0 °F /  2.8 °C 17.1 °F /  -8.3 °C 29.92 in /  1013.1 hPa WNW 7.1 mph /  11.4 km/h 11.5 mph /  18.5 km/h 44 % 0.00 in /  0 mm
19:04 36.9 °F /  2.7 °C 18.0 °F /  -7.8 °C 29.93 in /  1013.4 hPa WNW 7.6 mph /  12.2 km/h 11.5 mph /  18.5 km/h 46 % 0.00 in /  0 mm
19:09 36.8 °F /  2.7 °C 17.4 °F /  -8.1 °C 29.93 in /  1013.4 hPa WNW 6.4 mph /  10.3 km/h 9.2 mph /  14.8 km/h 45 % 0.00 in /  0 mm
19:14 36.7 °F /  2.6 °C 17.3 °F /  -8.2 °C 29.93 in /  1013.4 hPa NW 5.4 mph /  8.7 km/h 9.2 mph /  14.8 km/h 45 % 0.00 in /  0 mm
19:20 36.6 °F /  2.6 °C 17.7 °F /  -7.9 °C 29.93 in /  1013.4 hPa WNW 6.0 mph /  9.7 km/h 13.8 mph /  22.2 km/h 46 % 0.00 in /  0 mm
19:25 36.5 °F /  2.5 °C 17.7 °F /  -7.9 °C 29.94 in /  1013.8 hPa NW 6.7 mph /  10.8 km/h 8.1 mph /  13 km/h 46 % 0.00 in /  0 mm
19:30 36.5 °F /  2.5 °C 17.1 °F /  -8.3 °C 29.94 in /  1013.8 hPa WNW 5.2 mph /  8.4 km/h 8.1 mph /  13 km/h 45 % 0.00 in /  0 mm
19:35 36.4 °F /  2.4 °C 17.6 °F /  -8 °C 29.94 in /  1013.8 hPa NW 5.5 mph /  8.9 km/h 10.0 mph /  16.1 km/h 46 % 0.00 in /  0 mm
19:40 36.4 °F /  2.4 °C 17.6 °F /  -8 °C 29.95 in /  1014.1 hPa NW 6.0 mph /  9.7 km/h 10.4 mph /  16.7 km/h 46 % 0.00 in /  0 mm
19:45 36.4 °F /  2.4 °C 16.5 °F /  -8.6 °C 29.95 in /  1014.1 hPa NW 4.4 mph /  7.1 km/h 16.1 mph /  25.9 km/h 44 % 0.00 in /  0 mm
19:50 36.3 °F /  2.4 °C 17.5 °F /  -8.1 °C 29.96 in /  1014.4 hPa NW 4.6 mph /  7.4 km/h 11.0 mph /  17.7 km/h 46 % 0.00 in /  0 mm
19:55 36.3 °F /  2.4 °C 18.9 °F /  -7.3 °C 29.96 in /  1014.4 hPa WNW 5.4 mph /  8.7 km/h 9.2 mph /  14.8 km/h 49 % 0.00 in /  0 mm
20:00 36.2 °F /  2.3 °C 18.9 °F /  -7.3 °C 29.96 in /  1014.4 hPa WNW 6.1 mph /  9.8 km/h 10.4 mph /  16.7 km/h 49 % 0.00 in /  0 mm
20:05 36.1 °F /  2.3 °C 19.2 °F /  -7.1 °C 29.97 in /  1014.8 hPa NW 5.0 mph /  8 km/h 11.5 mph /  18.5 km/h 50 % 0.00 in /  0 mm
20:10 36.0 °F /  2.2 °C 19.1 °F /  -7.2 °C 29.97 in /  1014.8 hPa West 3.2 mph /  5.1 km/h 10.0 mph /  16.1 km/h 50 % 0.00 in /  0 mm
20:15 35.9 °F /  2.2 °C 18.6 °F /  -7.4 °C 29.97 in /  1014.8 hPa WNW 5.7 mph /  9.2 km/h 8.1 mph /  13 km/h 49 % 0.00 in /  0 mm
20:20 35.7 °F /  2.1 °C 17.4 °F /  -8.1 °C 29.98 in /  1015.1 hPa NW 3.8 mph /  6.1 km/h 5.8 mph /  9.3 km/h 47 % 0.00 in /  0 mm
20:25 35.7 °F /  2.1 °C 17.9 °F /  -7.8 °C 29.98 in /  1015.1 hPa WNW 4.6 mph /  7.4 km/h 9.0 mph /  14.5 km/h 48 % 0.00 in /  0 mm
20:30 35.7 °F /  2.1 °C 16.9 °F /  -8.4 °C 29.98 in /  1015.1 hPa NW 9.1 mph /  14.6 km/h 16.0 mph /  25.7 km/h 46 % 0.00 in /  0 mm
20:35 35.6 °F /  2 °C 16.3 °F /  -8.7 °C 29.99 in /  1015.5 hPa West 9.0 mph /  14.5 km/h 18.4 mph /  29.6 km/h 45 % 0.00 in /  0 mm
20:41 35.6 °F /  2 °C 16.8 °F /  -8.4 °C 29.99 in /  1015.5 hPa West 3.4 mph /  5.5 km/h 6.9 mph /  11.1 km/h 46 % 0.00 in /  0 mm
20:46 35.5 °F /  1.9 °C 16.2 °F /  -8.8 °C 29.99 in /  1015.5 hPa West 5.7 mph /  9.2 km/h 15.0 mph /  24.1 km/h 45 % 0.00 in /  0 mm
20:51 35.4 °F /  1.9 °C 17.1 °F /  -8.3 °C 30.00 in /  1015.8 hPa NW 5.4 mph /  8.7 km/h 11.5 mph /  18.5 km/h 47 % 0.00 in /  0 mm
20:56 35.3 °F /  1.8 °C 18.0 °F /  -7.8 °C 30.00 in /  1015.8 hPa West 3.7 mph /  6 km/h 8.1 mph /  13 km/h 49 % 0.00 in /  0 mm
21:01 35.3 °F /  1.8 °C 17.1 °F /  -8.3 °C 30.00 in /  1015.8 hPa WNW 5.6 mph /  9 km/h 10.4 mph /  16.7 km/h 47 % 0.00 in /  0 mm
21:11 35.1 °F /  1.7 °C 17.4 °F /  -8.1 °C 30.01 in /  1016.1 hPa West 7.6 mph /  12.2 km/h 14.0 mph /  22.5 km/h 48 % 0.00 in /  0 mm
21:16 35.1 °F /  1.7 °C 17.4 °F /  -8.1 °C 30.01 in /  1016.1 hPa NW 5.5 mph /  8.9 km/h 10.4 mph /  16.7 km/h 48 % 0.00 in /  0 mm
21:21 35.0 °F /  1.7 °C 16.8 °F /  -8.4 °C 30.02 in /  1016.5 hPa NNW 10.9 mph /  17.5 km/h 18.0 mph /  29 km/h 47 % 0.00 in /  0 mm
21:26 35.0 °F /  1.7 °C 16.8 °F /  -8.4 °C 30.02 in /  1016.5 hPa WNW 9.8 mph /  15.8 km/h 17.0 mph /  27.4 km/h 47 % 0.00 in /  0 mm
21:31 35.0 °F /  1.7 °C 17.7 °F /  -7.9 °C 30.02 in /  1016.5 hPa NW 6.2 mph /  10 km/h 15.0 mph /  24.1 km/h 49 % 0.00 in /  0 mm
21:36 34.9 °F /  1.6 °C 17.2 °F /  -8.2 °C 30.03 in /  1016.8 hPa WNW 6.6 mph /  10.6 km/h 10.4 mph /  16.7 km/h 48 % 0.00 in /  0 mm
21:41 34.8 °F /  1.6 °C 16.1 °F /  -8.8 °C 30.03 in /  1016.8 hPa NW 7.5 mph /  12.1 km/h 17.3 mph /  27.8 km/h 46 % 0.00 in /  0 mm
21:46 34.7 °F /  1.5 °C 16.5 °F /  -8.6 °C 30.03 in /  1016.8 hPa WNW 8.6 mph /  13.8 km/h 13.8 mph /  22.2 km/h 47 % 0.00 in /  0 mm
21:51 34.7 °F /  1.5 °C 16.5 °F /  -8.6 °C 30.04 in /  1017.2 hPa WSW 9.5 mph /  15.3 km/h 15.0 mph /  24.1 km/h 47 % 0.00 in /  0 mm
21:56 34.6 °F /  1.4 °C 15.4 °F /  -9.2 °C 30.04 in /  1017.2 hPa NW 11.1 mph /  17.9 km/h 18.4 mph /  29.6 km/h 45 % 0.00 in /  0 mm
22:01 34.5 °F /  1.4 °C 16.8 °F /  -8.4 °C 30.04 in /  1017.2 hPa WNW 8.2 mph /  13.2 km/h 16.1 mph /  25.9 km/h 48 % 0.00 in /  0 mm
22:06 34.4 °F /  1.3 °C 16.7 °F /  -8.5 °C 30.05 in /  1017.5 hPa NW 9.1 mph /  14.6 km/h 16.1 mph /  25.9 km/h 48 % 0.00 in /  0 mm
22:11 34.3 °F /  1.3 °C 16.6 °F /  -8.6 °C 30.05 in /  1017.5 hPa West 10.4 mph /  16.7 km/h 18.4 mph /  29.6 km/h 48 % 0.00 in /  0 mm
22:16 34.2 °F /  1.2 °C 16.5 °F /  -8.6 °C 30.05 in /  1017.5 hPa NW 8.6 mph /  13.8 km/h 15.0 mph /  24.1 km/h 48 % 0.00 in /  0 mm
22:21 34.1 °F /  1.2 °C 16.4 °F /  -8.7 °C 30.05 in /  1017.5 hPa NNW 9.7 mph /  15.6 km/h 25.3 mph /  40.7 km/h 48 % 0.00 in /  0 mm
22:26 34.1 °F /  1.2 °C 16.4 °F /  -8.7 °C 30.05 in /  1017.5 hPa WNW 11.1 mph /  17.9 km/h 23.0 mph /  37 km/h 48 % 0.00 in /  0 mm
22:31 34.0 °F /  1.1 °C 17.7 °F /  -7.9 °C 30.05 in /  1017.5 hPa NNW 8.7 mph /  14 km/h 17.3 mph /  27.8 km/h 51 % 0.00 in /  0 mm
22:36 33.9 °F /  1.1 °C 17.2 °F /  -8.2 °C 30.06 in /  1017.8 hPa WNW 10.6 mph /  17.1 km/h 15.0 mph /  24.1 km/h 50 % 0.00 in /  0 mm
22:41 33.8 °F /  1 °C 17.1 °F /  -8.3 °C 30.06 in /  1017.8 hPa NW 11.4 mph /  18.3 km/h 17.3 mph /  27.8 km/h 50 % 0.00 in /  0 mm
22:46 33.8 °F /  1 °C 18.0 °F /  -7.8 °C 30.06 in /  1017.8 hPa NNW 8.1 mph /  13 km/h 13.8 mph /  22.2 km/h 52 % 0.00 in /  0 mm
22:51 33.7 °F /  0.9 °C 17.9 °F /  -7.8 °C 30.06 in /  1017.8 hPa NNW 3.5 mph /  5.6 km/h 12.7 mph /  20.4 km/h 52 % 0.00 in /  0 mm
22:57 33.5 °F /  0.8 °C 17.7 °F /  -7.9 °C 30.06 in /  1017.8 hPa NW 6.6 mph /  10.6 km/h 13.0 mph /  20.9 km/h 52 % 0.00 in /  0 mm
23:02 33.4 °F /  0.8 °C 17.2 °F /  -8.2 °C 30.06 in /  1017.8 hPa NW 6.6 mph /  10.6 km/h 10.4 mph /  16.7 km/h 51 % 0.00 in /  0 mm
23:07 33.4 °F /  0.8 °C 17.6 °F /  -8 °C 30.07 in /  1018.2 hPa WNW 8.3 mph /  13.4 km/h 14.0 mph /  22.5 km/h 52 % 0.00 in /  0 mm
23:12 33.3 °F /  0.7 °C 18.0 °F /  -7.8 °C 30.06 in /  1017.8 hPa NW 5.9 mph /  9.5 km/h 16.1 mph /  25.9 km/h 53 % 0.00 in /  0 mm
23:17 33.2 °F /  0.7 °C 17.9 °F /  -7.8 °C 30.06 in /  1017.8 hPa West 7.2 mph /  11.6 km/h 16.1 mph /  25.9 km/h 53 % 0.00 in /  0 mm
23:22 33.1 °F /  0.6 °C 17.4 °F /  -8.1 °C 30.07 in /  1018.2 hPa NW 8.8 mph /  14.2 km/h 15.0 mph /  24.1 km/h 52 % 0.00 in /  0 mm
23:27 33.0 °F /  0.6 °C 16.8 °F /  -8.4 °C 30.07 in /  1018.2 hPa WNW 8.3 mph /  13.4 km/h 16.1 mph /  25.9 km/h 51 % 0.00 in /  0 mm
23:32 33.0 °F /  0.6 °C 17.3 °F /  -8.2 °C 30.07 in /  1018.2 hPa NW 6.3 mph /  10.1 km/h 10.4 mph /  16.7 km/h 52 % 0.00 in /  0 mm
23:37 33.0 °F /  0.6 °C 17.7 °F /  -7.9 °C 30.07 in /  1018.2 hPa WNW 2.8 mph /  4.5 km/h 5.8 mph /  9.3 km/h 53 % 0.00 in /  0 mm
23:42 32.9 °F /  0.5 °C 18.1 °F /  -7.7 °C 30.07 in /  1018.2 hPa NW 5.6 mph /  9 km/h 10.0 mph /  16.1 km/h 54 % 0.00 in /  0 mm
23:47 32.8 °F /  0.4 °C 18.0 °F /  -7.8 °C 30.07 in /  1018.2 hPa NW 5.2 mph /  8.4 km/h 13.8 mph /  22.2 km/h 54 % 0.00 in /  0 mm
23:52 32.8 °F /  0.4 °C 18.4 °F /  -7.6 °C 30.07 in /  1018.2 hPa WNW 5.7 mph /  9.2 km/h 8.0 mph /  12.9 km/h 55 % 0.00 in /  0 mm
23:57 32.8 °F /  0.4 °C 18.4 °F /  -7.6 °C 30.08 in /  1018.5 hPa NW 5.5 mph /  8.9 km/h 15.0 mph /  24.1 km/h 55 % 0.00 in /  0 mm
Crab Meadow Weather
Compliments of Weather Underground - 3 mb

Script developed by  Jim McMurry - jmcmurry@mwt.net Adapted for the template by  Wim van der Kuil - Leuven-Template.eu

Dew Point: The dew point is the temperature to which air must be cooled, at constant barometric pressure, for water vapor to condense into water. The condensed water is called dew. When the dew point temperature falls below freezing it is called the frost point, as the water no longer creates dew but instead creates frost. The dew point is associated with relative humidity. A high relative humidity indicates that the dew point is closer to the current air temperature. If the relative humidity is 100%, the dew point is equal to the current temperature. Given a constant dew point, an increase in temperature will lead to a decrease in relative humidity.